Weather History for Asheville, NC

Change the Weather History Date:

Saturday, October 10, 2009

  Actual Average Record
Temperature  
Mean Temperature 62 °F 58 °F  
Max Temperature 67 °F 70 °F 85 °F (1939)
Min Temperature 56 °F 47 °F 27 °F (1915)
Degree Days  
Heating Degree Days 3 7  
Month to date heating degree days 61 60  
Since 1 July heating degree days 84 117  
Cooling Degree Days 0 0  
Month to date cooling degree days 4 7  
Year to date cooling degree days 774 859  
Growing Degree Days 13 (Base 50)    
Moisture  
Dew Point 61 °F    
Average Humidity 86    
Maximum Humidity 93    
Minimum Humidity 78    
Precipitation  
Precipitation 0.03 in 0.09 in 1.15 in (1999)
Month to date precipitation 1.04 1.00  
Year to date precipitation 43.25 36.42  
Snow  
Snow 0.00 in 0.00 in T in (1925)
Month to date snowfall 0.0 0.0  
Since 1 July snowfall 0.0 0.0  
Since 1 September snowfall 0.0 0.0  
Snow Depth 0.00 in    
Sea Level Pressure  
Sea Level Pressure 29.98 in    
Wind  
Wind Speed 9 mph (NNW)    
Max Wind Speed 20 mph    
Max Gust Speed 25 mph    
Visibility 10 miles    
Events Rain , Thunderstorm    
T = Trace of Precipitation, MM = Missing Value Source: NWS Daily Summary

Daily Weather History Graph

Daily Weather History Graph

Search for Another Location

Airport:

Trip Planner

Search our weather history database for the weather conditions in past years. The results will help you decide how hot, cold, wet, or windy it might be!

Date:

Astronomy

Oct. 10, 2009 Rise Set
Actual Time 7:32 AM EDT 7:01 PM EDT
Civil Twilight 7:06 AM EDT 7:26 PM EDT
Nautical Twilight 6:37 AM EDT 7:56 PM EDT
Astronomical Twilight 6:07 AM EDT 8:25 PM EDT
Moon No Moon Rise 2:08 PM EDT (10/10)
Length of Visible Light 12h 19m
Length of Day
11h 28m
Waning Gibbous, 58% of the Moon is Illuminated
Oct 10
Waning Gibbous
Oct 11
Last Quarter
Oct 18
New
Oct 25
First Quarter
Nov 2
Full

Hourly Weather History & Observations

Time (EDT) Temp. Dew Point Humidity Pressure Visibility Wind Dir Wind Speed Gust Speed Precip Events Conditions
12:11 AM 69.8 °F 68.0 °F 94% 29.94 in 2.5 mi NW 8.1 mph - 0.05 in Rain Rain
12:18 AM 69.8 °F 68.0 °F 94% 29.95 in 7.0 mi NW 9.2 mph - 0.06 in Rain Light Rain
12:23 AM 69.8 °F 66.2 °F 88% 29.95 in 10.0 mi NW 9.2 mph - 0.06 in Rain Light Rain
12:30 AM 68.0 °F 66.2 °F 94% 29.95 in 10.0 mi NW 8.1 mph - 0.06 in   Overcast
12:45 AM 68.0 °F 66.2 °F 94% 29.94 in 10.0 mi NNW 8.1 mph - 0.06 in Thunderstorm Overcast
12:54 AM 66.9 °F 66.0 °F 97% 29.87 in 10.0 mi NNW 8.1 mph - 0.06 in Thunderstorm Mostly Cloudy
1:10 AM 66.2 °F 66.2 °F 100% 29.94 in 10.0 mi NNW 8.1 mph - N/A   Mostly Cloudy
1:54 AM 66.0 °F 64.0 °F 93% 29.86 in 10.0 mi NNW 8.1 mph - N/A   Overcast
2:17 AM 64.4 °F 64.4 °F 100% 29.95 in 10.0 mi NNW 8.1 mph - N/A   Overcast
2:54 AM 64.9 °F 63.0 °F 93% 29.87 in 10.0 mi Calm Calm - N/A   Overcast
3:13 AM 64.4 °F 62.6 °F 94% 29.94 in 10.0 mi Calm Calm - N/A   Overcast
3:54 AM 64.0 °F 62.1 °F 93% 29.87 in 10.0 mi North 8.1 mph - N/A   Mostly Cloudy
4:24 AM 64.4 °F 62.6 °F 94% 29.94 in 10.0 mi NNW 5.8 mph - N/A   Overcast
4:32 AM 62.6 °F 62.6 °F 100% 29.95 in 10.0 mi NNW 9.2 mph - N/A   Overcast
4:54 AM 64.0 °F 63.0 °F 96% 29.89 in 10.0 mi NNW 9.2 mph - N/A   Mostly Cloudy
5:54 AM 63.0 °F 61.0 °F 93% 29.92 in 10.0 mi NNW 13.8 mph 20.7 mph 0.00 in Rain Light Rain
6:54 AM 62.1 °F 60.1 °F 93% 29.96 in 10.0 mi NNW 9.2 mph - 0.00 in Rain Light Rain
7:54 AM 61.0 °F 57.9 °F 90% 29.97 in 10.0 mi NNW 8.1 mph - 0.02 in   Overcast
8:54 AM 61.0 °F 57.9 °F 90% 29.98 in 10.0 mi North 9.2 mph - N/A   Overcast
9:54 AM 62.1 °F 57.9 °F 86% 29.99 in 10.0 mi NNW 17.3 mph 20.7 mph N/A   Overcast
10:54 AM 62.1 °F 59.0 °F 90% 30.01 in 10.0 mi North 6.9 mph 16.1 mph 0.00 in Rain Light Rain
11:54 AM 64.9 °F 59.0 °F 81% 30.01 in 10.0 mi NNW 8.1 mph - 0.01 in   Partly Cloudy
12:54 PM 66.0 °F 59.0 °F 78% 30.00 in 10.0 mi North 9.2 mph - 0.00 in   Partly Cloudy
1:54 PM 64.9 °F 57.9 °F 78% 30.01 in 10.0 mi NNW 12.7 mph - 0.00 in   Scattered Clouds
2:54 PM 63.0 °F 59.0 °F 87% 30.01 in 10.0 mi NNW 11.5 mph 18.4 mph 0.00 in   Partly Cloudy
3:15 PM 62.6 °F 60.8 °F 94% 30.07 in 10.0 mi North 10.4 mph - N/A   Scattered Clouds
3:54 PM 63.0 °F 57.9 °F 84% 30.01 in 10.0 mi NNW 10.4 mph - N/A   Clear
4:54 PM 64.0 °F 57.9 °F 80% 30.03 in 10.0 mi NNW 11.5 mph - N/A   Clear
5:54 PM 62.1 °F 55.9 °F 80% 30.04 in 10.0 mi NNW 10.4 mph - N/A   Mostly Cloudy
6:54 PM 60.1 °F 55.9 °F 86% 30.06 in 10.0 mi NNW 12.7 mph - N/A   Clear
7:54 PM 59.0 °F 55.0 °F 87% 30.09 in 10.0 mi NNW 10.4 mph - N/A   Clear
8:54 PM 57.9 °F 54.0 °F 87% 30.09 in 10.0 mi NNW 10.4 mph - N/A   Clear
9:54 PM 57.0 °F 54.0 °F 89% 30.10 in 10.0 mi NNW 6.9 mph - N/A   Clear
10:54 PM 57.0 °F 54.0 °F 89% 30.12 in 10.0 mi NNW 5.8 mph - N/A   Mostly Cloudy
11:54 PM 55.9 °F 54.0 °F 93% 30.12 in 10.0 mi NNW 6.9 mph - N/A   Partly Cloudy